Regional Weather Roundup
Issued by NWS

Home | Current Version | Previous Version | Graphics & Text | Print | Product List | Glossary Off
Versions: 1 2 3 4 5 6 7 8 9 10 11 12 13 14 15 16 17 18 19 20 21 22 23 24 25 26 27 28 29 30 31 32 33 34 35 36 37 38 39 40 41 42 43 44 45 46 47 48 49 50

000
ASUS43 KMKX 281111
RWRWI

WISCONSIN REGIONAL WEATHER ROUNDUP
NATIONAL WEATHER SERVICE MILWAUKEE/SULLIVAN WI
600 AM CDT TUE JUL 28 2015

NOTE: "FAIR" INDICATES FEW OR NO CLOUDS BELOW 12,000 FEET WITH NO
SIGNIFICANT WEATHER AND/OR OBSTRUCTIONS TO VISIBILITY.

WIZ001-002-006>008-014>016-023>028-281200-
NORTHWEST WISCONSIN

CITY           SKY/WX    TMP DP  RH WIND       PRES   REMARKS
SUPERIOR ARPT  MOCLDY    67  65  96 E3        29.83F
ASHLAND        PTCLDY    67  64  90 VRB3      29.89S
HAYWARD        MOCLDY    70  65  84 S8        29.90S
SIREN          CLOUDY    72  68  86 SE9       29.83F
CUMBERLAND     PTCLDY    68  64  88 SE8       29.88S
RICE LAKE      PTCLDY    69  65  87 SE9       29.90S
CHETEK         PTCLDY    69  66  91 SE8       29.89S
LADYSMITH      PTCLDY    69  63  81 SE7       29.93F
EAU CLAIRE     PTCLDY    72  65  78 SE12      29.89S
MENOMONIE      PTCLDY    69  68  94 SE8       29.88S
NEW RICHMOND   CLOUDY    72  70  93 SE12G18   29.85R
OSCEOLA        CLOUDY    73  73 100 SE10      29.85S
$$

WIZ003>005-009-010-017-018-281200-
NORTH CENTRAL WISCONSIN

CITY           SKY/WX    TMP DP  RH WIND       PRES   REMARKS
MANITOWISH WTR CLEAR     66  63  88 S6        29.98S
ARBOR VITAE    CLEAR     69  62  77 S8        29.98F
WOODRUFF       CLEAR     69  62  77 S8        29.98F
RHINELANDER    CLEAR     59  57  93 E6        29.99S
EAGLE RIVER    CLEAR     62  61  97 SE3       29.99F
LAND O LAKES     N/A     56  56 100 CALM      30.00F FOG
PHILLIPS       CLOUDY    68  61  79 SE6       29.95S
TOMAHAWK       CLEAR     63  60  90 CALM      29.98S
MEDFORD        CLEAR     64  62  90 SE6       29.96F
MERRILL        NOT AVBL
$$

WIZ029-030-035-036-043>047-281200-
CENTRAL WISCONSIN

CITY           SKY/WX    TMP DP  RH WIND       PRES   REMARKS
WAUSAU         CLEAR     66  61  84 S6        29.97R
MOSINEE        CLEAR     63  61  94 SE5       29.99S
MARSHFIELD     CLEAR     68  60  75 SE9       29.96S
STEVENS POINT  CLEAR     64  59  86 SE6       29.98F
WAUPACA        CLEAR     62  61  98 CALM      29.99S
WAUTOMA        CLEAR     59  59 100 CALM      29.99S
WISC RAPIDS    CLEAR     67  60  78 SE7       29.98S
CAMP DOUGLAS   CLEAR     65  65 100 S3        29.95S
$$

WIZ011>013-019>022-031-037>040-048>050-281200-
NORTHEAST WISCONSIN

CITY           SKY/WX    TMP DP  RH WIND       PRES   REMARKS
ANTIGO         CLEAR     60  60  98 SE3       30.02R
SHAWANO        CLEAR     67  61  81 S3        29.99S
OCONTO         CLEAR     57  57 100 CALM      29.99S
STURGEON BAY   CLEAR     66  57  72 S6        30.02S
GREEN BAY      CLEAR     60  59  96 CALM      29.99F FOG
MANITOWOC      CLEAR     61  61 100 MISG      30.00S FOG
APPLETON       CLEAR     68  61  77 VRB5      29.99F
CLINTONVILLE   PTCLDY    59  55  88 CALM      29.99S
OSHKOSH        CLEAR     64  60  87 S6        29.99F FOG
$$

WIZ032>034-041-042-053>061-281200-
SOUTHWEST WISCONSIN

CITY           SKY/WX    TMP DP  RH WIND       PRES   REMARKS
LA CROSSE      CLEAR     73  65  75 SE8       29.91R
SPARTA         CLEAR     69  60  74 S5        29.95R
VIROQUA        CLEAR     67  64  89 SE9       29.97R
BOSCOBEL       CLEAR     68  63  84 CALM      29.95R
PRAIRIE DU CHI CLEAR     69  64  83 E7        29.93R
PLATTEVILLE    CLEAR     66  64  93 SE6       29.98R
$$

WIZ056-057-062-063-064-067-068-281200-
SOUTH CENTRAL WISCONSIN

CITY           SKY/WX    TMP DP  RH WIND       PRES   REMARKS
REEDSBURG      CLEAR     66  62  87 E3        29.97R
BARABOO/DELLS  CLEAR     67  60  79 SE3       29.98R
LONE ROCK      CLEAR     65  62  90 E7        29.97R
MINERAL POINT  CLEAR     68  63  83 SE9       29.97S
MADISON        PTCLDY    69  61  75 SE9       29.97F
MIDDLETON      CLEAR     67  63  85 SE3       29.98S
WATERTOWN      CLEAR     64  64 100 SE3       29.98S
MONROE         CLEAR     64  63  94 SE8       29.98S
JANESVILLE     CLEAR     64  63  94 SE3       29.98F
$$

WIZ051-052-058>065-066-070>072-281200-
SOUTHEAST WISCONSIN

CITY           SKY/WX    TMP DP  RH WIND       PRES   REMARKS
MILWAUKEE      PTCLDY    67  62  84 CALM      30.00S
WAUKESHA       CLEAR     61  61 100 CALM      30.01F
MILWAUKEE/TIMM CLEAR     63  61  94 CALM      30.01S
RACINE         CLEAR     64  61  90 CALM      30.02R
BURLINGTON     FOG       56  56  99 CALM      30.01R VSB 1/4
KENOSHA        FOG       60  60 100 NE3       30.00F VSB 1/2
FOND DU LAC    CLEAR     65  61  87 S5        29.99F
SHEBOYGAN      FOG       60  59  96 CALM      30.00S VSB 3/4
WEST BEND      CLEAR     57  55  94 CALM      30.00F
JUNEAU           N/A     64  60  88 E6        30.00S
$$

LSZ147-162-281200-
LAKE SUPERIOR

STATION/POSITION TIME  TEMP    WIND        PRES    WAVE
                       AIR SEA DIR/SP/G            HT/PER
                 (UTC) (F)     (DEG/KT/KT) (MB)    (FT/S)
W MID LAKE BUOY  1050   65 62  140/ 10/ 12 1012.2F   0
DEVILS ISLAND    1100   73     160/ 11/ 14 1011.8R
PORT WING        1000   73     150/  4/ 10 1011.2F
SAXON HARBOR     1000   72                 1011.9
$$

LMZ867-665-643>646-281200-
LAKE MICHIGAN

STATION/POSITION TIME  TEMP    WIND        PRES    WAVE
                       AIR SEA DIR/SP/G            HT/PER
                 (UTC) (F)     (DEG/KT/KT) (MB)    (FT/S)
CHAMBERS ISLAND  1000   69      CALM  /  2 1015.9R
S GREEN BAY BUOY 1000   74 75  160/  8/ 12 1017.1R
N MID LAKE BUOY  1050   70 69  200/  2/  2 1016.0R   0
NORTHPORT PIER   1001   69     200/  4/  9 1015.9R
SISTER BAY       1014   69     170/  7/  9   N/A
ALGOMA LAKESHORE 1012             CALM       N/A
KEWAUNEE LAKESHO 1000   64        CALM     1015.4F
SHEBOYGAN LAKESH 1100   70     200/  3/  3 1015.7F
PORT WASHINGTON  1000   66     280/  3/  3 1016.6S
ATWATER BUOY     1100   72     180/  6/  8 1017.1F
MILWAUKEE LAKESH 1000   71      50/  1/  2   N/A
KENOSHA   LAKESH 1100   72      CALM  /  1 1015.6S
$$

TC  - TEMPERATURE IN CELSIUS
VSB - VISIBILITY IN STATUTE MILES
WCI - WIND CHILL INDEX
HX  - HEAT INDEX




USA.gov is the U.S. government's official web portal to all federal, state and local government web resources and services.